Latest Coastal Weather Observations for Cape Borda

IDS60701

Issued at 3:45 am CST Wednesday 1 October 2014 (issued every 10 minutes, with the page automatically refreshed every 10 minutes)

About coastal observations | Map of coastal stations | Coastal observations for SA | Marine services | Other Formats
Station Details ID: 022823 Name: CAPE BORDA Lat: -35.75 Lon: 136.60 Height: 158.0 m
Data from the previous 72 hours. | See also: Recent months at Cape Borda
Date/Time
CST
Temp

°C
Wind Pressure Rain
since 9am
mm
Weather Cloud Vis
km
Sea
Height
m
Swell
Dir
 
Speed
knots
Gust
knots
hPa Trend Height
m
Period
s
Dir
01/03:30am 10.0 SSW 11 15 1024.3 - 0.0 - - - - - - -
01/03:00am 10.3 SSW 13 17 1024.1 - 0.0 - - - - - - -
01/02:30am 10.5 SSW 13 20 1023.9 - 0.0 - - - - - - -
01/02:00am 10.5 SSW 11 18 1023.8 - 0.0 - - - - - - -
01/01:30am 11.0 SSW 14 19 1023.7 - 0.0 - - - - - - -
01/01:00am 11.4 SSW 15 21 1023.6 - 0.0 - - - - - - -
01/12:30am 11.4 SSW 13 18 1023.5 - 0.0 - - - - - - -
01/12:00am 11.1 SW 13 17 1023.5 - 0.0 - - - - - - -
 
Date/Time
CST
Temp

°C
Wind Pressure Rain
since 9am
mm
Weather Cloud Vis
km
Sea
Height
m
Swell
Dir
 
Speed
knots
Gust
knots
hPa Trend Height
m
Period
s
Dir
30/11:30pm 11.0 SW 13 17 1023.2 - 0.0 - - - - - - -
30/11:00pm 11.5 SW 14 19 1023.0 - 0.0 - - - - - - -
30/10:30pm 11.4 SSW 15 22 1022.6 - 0.0 - - - - - - -
30/10:00pm 11.4 SW 14 22 1022.4 - 0.0 - - - - - - -
30/09:30pm 11.4 SW 16 22 1022.2 - 0.0 - - - - - - -
30/09:00pm 11.4 SW 16 23 1021.9 - 0.0 - - - - - - -
30/08:31pm 11.6 SW 17 27 1021.4 - 0.0 - - - - - - -
30/08:30pm 11.6 SW 16 24 1021.4 - 0.0 - - - - - - -
30/08:00pm 12.0 SW 18 27 1021.1 - 0.0 - - - - - - -
30/07:53pm 12.2 SW 16 27 1020.9 - 0.0 - - - - - - -
30/07:30pm 11.9 SW 18 25 1020.4 - 0.0 - - - - - - -
30/07:01pm 11.9 SW 17 29 1019.8 - 0.0 - - - - - - -
30/07:00pm 12.0 SW 17 25 1019.7 - 0.0 - - - - - - -
30/06:30pm 12.1 SW 18 26 1019.2 - 0.0 - - - - - - -
30/06:02pm 12.4 SW 21 31 1018.8 - 0.0 - - - - - - -
30/06:00pm 12.5 SW 22 31 1018.8 - 0.0 - - - - - - -
30/05:30pm 13.1 SW 21 31 1018.2 - 0.0 - - - - - - -
30/05:00pm 13.8 WSW 20 31 1017.8 - 0.0 - - - - - - -
30/04:30pm 14.0 WSW 20 30 1017.3 - 0.0 - - - - - - -
30/04:00pm 13.8 WSW 21 31 1017.1 - 0.0 - - - - - - -
30/03:47pm 14.8 WSW 19 29 1016.8 - 0.0 - - - - - - -
30/03:30pm 15.1 WSW 22 29 1016.7 - 0.0 - - - - - - -
30/03:00pm 14.3 WSW 19 29 1016.7 R 0.0 Distant precip. Mostly cloudy 10 3 7.9 8 SW
30/02:55pm 14.3 WSW 19 29 1016.5 - 0.0 - - - - - - -
30/02:30pm 16.1 WSW 20 28 1016.2 - 0.0 - - - - - - -
30/02:08pm 15.6 WSW 21 31 1016.0 - 0.0 - - - - - - -
30/02:00pm 15.6 WSW 21 27 1015.9 - 0.0 - - - - - - -
30/01:32pm 16.2 WSW 19 29 1015.6 - 0.0 - - - - - - -
30/01:30pm 15.8 WSW 20 29 1015.6 - 0.0 - - - - - - -
30/01:04pm 15.8 WSW 19 30 1015.5 - 0.0 - - - - - - -
30/01:00pm 16.3 WSW 19 27 1015.5 - 0.0 - - - - - - -
30/12:37pm 15.8 WSW 19 29 1015.3 - 0.0 - - - - - - -
30/12:30pm 15.5 WSW 21 29 1015.2 - 0.0 - - - - - - -
30/12:00pm 15.1 WSW 21 30 1014.8 - 0.0 - - - - - - -
30/11:33am 14.4 WSW 21 31 1014.5 - 0.0 - - - - - - -
30/11:30am 14.2 W 22 31 1014.4 - 0.0 - - - - - - -
30/11:00am 13.9 WSW 20 30 1013.9 - 0.0 - - - - - - -
30/10:30am 13.2 WSW 21 31 1013.6 - 0.0 - - - - - - -
30/10:12am 15.1 W 22 33 1013.3 - 0.0 - - - - - - -
30/10:00am 15.9 W 25 31 1013.3 - 0.0 - - - - - - -
30/09:36am 15.1 W 21 34 1013.0 - 0.0 - - - - - - -
30/09:30am 14.9 W 22 30 1012.9 - 0.0 - - - - - - -
30/09:00am 14.6 W 21 32 1012.6 R 0.0 Fine Mostly cloudy 15 3 6.4 9 SW
30/08:59am 14.6 W 21 32 1012.4 - 0.0 - - - - - - -
30/08:30am 14.5 W 20 28 1012.0 - 0.0 - - - - - - -
30/08:00am 14.8 WNW 21 31 1011.5 - 0.0 - - - - - - -
30/07:30am 14.4 W 20 27 1011.4 - 0.0 - - - - - - -
30/07:00am 14.1 WNW 19 26 1011.1 - 0.0 - - - - - - -
30/06:46am 14.1 WNW 19 29 1011.1 - 0.0 - - - - - - -
30/06:30am 14.4 W 20 28 1011.1 - 0.0 - - - - - - -
30/06:08am 14.3 W 19 31 1010.8 - 0.0 - - - - - - -
30/06:00am 14.6 W 21 30 1010.5 R 0.0 Distant precip. Mostly cloudy 15 1 7.7 10 SW
30/05:51am 14.4 WNW 18 30 1010.5 - 0.0 - - - - - - -
30/05:30am 14.3 WNW 18 26 1010.1 - 0.0 - - - - - - -
30/05:00am 14.4 NW 16 21 1009.8 - 0.0 - - - - - - -
30/04:30am 14.4 NW 17 23 1009.8 - 0.0 - - - - - - -
30/04:00am 14.3 NW 17 24 1009.7 - 0.0 - - - - - - -
30/03:30am 13.8 NNW 14 21 1009.7 - 0.0 - - - - - - -
30/03:00am 13.5 NNW 12 15 1009.9 - 0.0 - - - - - - -
30/02:30am 13.6 NNW 11 15 1009.7 - 0.0 - - - - - - -
30/02:00am 13.8 NNW 11 14 1010.5 - 0.0 - - - - - - -
30/01:30am 13.9 NNW 11 16 1010.8 - 0.0 - - - - - - -
30/01:00am 13.9 NNW 12 17 1010.9 - 0.0 - - - - - - -
30/12:30am 14.2 NNW 12 16 1011.2 - 0.0 - - - - - - -
30/12:00am 14.5 NW 13 19 1011.9 - 0.0 - - - - - - -
 
Date/Time
CST
Temp

°C
Wind Pressure Rain
since 9am
mm
Weather Cloud Vis
km
Sea
Height
m
Swell
Dir
 
Speed
knots
Gust
knots
hPa Trend Height
m
Period
s
Dir
29/11:30pm 14.5 NW 14 21 1012.4 - 0.0 - - - - - - -
29/11:00pm 14.4 NW 15 21 1012.9 - 0.0 - - - - - - -
29/10:30pm 14.3 NW 15 21 1013.2 - 0.0 - - - - - - -
29/10:00pm 14.3 NW 13 17 1013.5 - 0.0 - - - - - - -
29/09:30pm 14.4 NW 15 22 1013.7 - 0.0 - - - - - - -
29/09:00pm 14.4 NW 14 20 1013.8 - 0.0 - - - - - - -
29/08:30pm 14.2 NW 15 21 1013.7 - 0.0 - - - - - - -
29/08:00pm 14.1 NW 15 22 1013.4 - 0.0 - - - - - - -
29/07:30pm 14.1 NW 13 19 1013.1 - 0.0 - - - - - - -
29/07:00pm 14.1 NW 15 21 1012.9 - 0.0 - - - - - - -
29/06:30pm 14.0 NW 13 19 1012.7 - 0.0 - - - - - - -
29/06:00pm 14.4 NW 13 21 1012.8 - 0.0 - - - - - - -
29/05:30pm 15.1 NW 14 19 1012.8 - 0.0 - - - - - - -
29/05:00pm 15.2 NW 13 19 1012.5 - 0.0 - - - - - - -
29/04:30pm 15.0 NW 13 19 1012.5 - 0.0 - - - - - - -
29/04:00pm 16.2 WNW 13 19 1012.5 - 0.0 - - - - - - -
29/03:30pm 16.4 NW 12 16 1012.3 - 0.0 - - - - - - -
29/03:00pm 16.5 WNW 13 17 1012.7 F 0.0 Fine Mostly clear 15 1 6.5 10 SW
29/02:30pm 16.5 WNW 13 18 1012.8 - 0.0 - - - - - - -
29/02:00pm 17.0 WNW 13 17 1013.0 - 0.0 - - - - - - -
29/01:30pm 16.6 NW 13 17 1013.2 - 0.0 - - - - - - -
29/01:00pm 17.0 NW 13 17 1013.5 - 0.0 - - - - - - -
29/12:30pm 16.2 NW 12 15 1013.8 - 0.0 - - - - - - -
29/12:00pm 16.1 NW 13 18 1014.3 - 0.0 - - - - - - -
29/11:30am 16.2 NW 11 14 1014.4 - 0.0 - - - - - - -
29/11:00am 15.4 NW 8 12 1014.5 - 0.0 - - - - - - -
29/10:30am 15.5 WNW 9 12 1014.5 - 0.0 - - - - - - -
29/10:00am 15.1 WNW 11 16 1014.8 - 0.0 - - - - - - -
29/09:30am 15.0 WNW 11 15 1014.7 - 0.0 - - - - - - -
29/09:00am 14.5 W 11 15 1014.7 R 0.0 Fine Mostly cloudy 15 1 6.1 9 SW
29/08:30am 14.2 W 11 17 1014.4 - 0.0 - - - - - - -
29/08:00am 14.2 W 10 15 1013.9 - 0.0 - - - - - - -
29/07:30am 13.5 W 9 12 1013.6 - 0.0 - - - - - - -
29/07:00am 13.0 W 10 14 1013.4 - 0.0 - - - - - - -
29/06:30am 12.4 W 10 14 1013.4 - 0.0 - - - - - - -
29/06:00am 12.5 W 12 17 1013.3 F 0.0 Haze Mostly clear 1 <0.5 6.5 8 SW
29/05:30am 12.7 W 12 16 1012.8 - 0.0 - - - - - - -
29/05:00am 12.6 W 12 18 1012.8 - 0.0 - - - - - - -
29/04:30am 13.0 W 13 19 1012.6 - 0.0 - - - - - - -
29/04:00am 13.0 W 14 19 1012.6 - 0.0 - - - - - - -
29/03:30am 13.1 W 16 22 1012.8 - 0.0 - - - - - - -
29/03:00am 13.4 W 16 24 1013.1 - 0.0 - - - - - - -
29/02:30am 13.3 W 15 21 1013.1 - 0.0 - - - - - - -
29/02:00am 13.6 W 17 25 1013.1 - 0.0 - - - - - - -
29/01:30am 13.8 WNW 18 24 1013.1 - 0.0 - - - - - - -
29/01:00am 14.0 WNW 17 22 1013.1 - 0.0 - - - - - - -
29/12:30am 14.2 WNW 18 24 1012.9 - 0.0 - - - - - - -
29/12:00am 14.3 WNW 18 25 1012.8 - 0.0 - - - - - - -
 
Date/Time
CST
Temp

°C
Wind Pressure Rain
since 9am
mm
Weather Cloud Vis
km
Sea
Height
m
Swell
Dir
 
Speed
knots
Gust
knots
hPa Trend Height
m
Period
s
Dir
28/11:31pm 14.4 W 20 30 1012.8 - 0.0 - - - - - - -
28/11:30pm 14.5 W 21 30 1012.8 - 0.0 - - - - - - -
28/11:23pm 14.3 WNW 20 30 1012.8 - 0.0 - - - - - - -
28/11:00pm 14.2 WNW 17 23 1013.0 - 0.0 - - - - - - -
28/10:33pm 14.2 W 19 29 1013.2 - 0.0 - - - - - - -
28/10:30pm 14.2 WNW 18 25 1013.2 - 0.0 - - - - - - -
28/10:00pm 14.3 WNW 19 26 1012.9 - 0.0 - - - - - - -
28/09:30pm 14.2 WNW 20 28 1012.8 - 0.0 - - - - - - -
28/09:15pm 14.3 WNW 18 28 1012.8 - 0.0 - - - - - - -
28/09:00pm 14.2 WNW 18 25 1012.9 - 0.0 - - - - - - -
28/08:30pm 14.4 WNW 17 25 1012.5 - 0.0 - - - - - - -
28/08:06pm 14.3 WNW 18 28 1012.0 - 0.0 - - - - - - -
28/08:00pm 14.5 WNW 20 28 1011.9 - 0.0 - - - - - - -
28/07:30pm 14.4 WNW 20 27 1011.5 - 0.0 - - - - - - -
28/07:00pm 14.6 WNW 20 27 1011.0 - 0.0 - - - - - - -
28/06:30pm 14.2 WNW 20 29 1010.6 - 0.0 - - - - - - -
28/06:23pm 14.3 WNW 19 29 1010.5 - 0.0 - - - - - - -
28/06:00pm 14.6 WNW 20 28 1010.2 - 0.0 - - - - - - -
28/05:52pm 14.8 WNW 18 28 1010.2 - 0.0 - - - - - - -
28/05:30pm 15.2 WNW 20 27 1009.9 - 0.0 - - - - - - -
28/05:00pm 15.7 W 19 26 1009.4 - 0.0 - - - - - - -
28/04:30pm 16.1 W 20 29 1009.0 - 0.0 - - - - - - -
28/04:00pm 16.4 W 19 29 1008.7 - 0.0 - - - - - - -
28/03:55pm 16.5 W 19 29 1008.7 - 0.0 - - - - - - -
28/03:30pm 16.8 W 19 25 1008.3 - 0.0 - - - - - - -
28/03:10pm 16.9 W 19 29 1008.2 - 0.0 - - - - - - -
28/03:00pm 16.8 W 19 28 1008.3 R 0.0 Fine Partly cloudy 10 3 3.8 7 SW
28/02:30pm 17.0 W 18 28 1008.3 - 0.0 - - - - - - -
28/02:00pm 17.2 W 18 23 1008.0 - 0.0 - - - - - - -
28/01:30pm 16.6 W 18 25 1008.0 - 0.0 - - - - - - -
28/01:00pm 17.7 W 16 27 1007.9 - 0.0 - - - - - - -
28/12:56pm 17.6 W 17 27 1007.8 - 0.0 - - - - - - -
28/12:30pm 18.0 W 15 20 1007.7 - 0.0 - - - - - - -
28/12:00pm 18.0 WNW 14 18 1007.4 - 0.0 - - - - - - -
28/11:30am 18.3 WNW 13 19 1007.1 - 0.0 - - - - - - -
28/11:00am 18.7 NW 9 12 1006.9 - 0.0 - - - - - - -
28/10:30am 18.7 N 8 11 1005.8 - 0.0 - - - - - - -
28/10:00am 18.7 N 7 11 1005.9 - 0.0 - - - - - - -
28/09:30am 18.6 NNE 9 13 1005.3 - 0.0 - - - - - - -
28/09:00am 18.3 NNW 5 7 1006.3 R 0.0 Fine Clear 10 1 3.9 7 SW
28/08:30am 18.1 NW 9 11 1006.7 - 0.0 - - - - - - -
28/08:00am 18.2 NNW 11 14 1006.5 - 0.0 - - - - - - -
28/07:30am 18.1 NNW 12 15 1006.1 - 0.0 - - - - - - -
28/07:00am 18.1 NW 15 23 1006.4 - 0.0 - - - - - - -
28/06:30am 17.3 NW 17 22 1006.3 - 0.0 - - - - - - -
28/06:26am 17.4 NW 19 22 1006.1 - 0.0 - - - - - - -
28/06:00am 18.3 N 23 33 1004.6 R 0.0 Haze Mostly clear 10 2 3.7 6 SW
28/05:57am 18.2 N 22 32 1004.5 - 0.0 - - - - - - -
28/05:30am 17.7 N 19 26 1003.6 - 0.0 - - - - - - -
28/05:01am 17.8 N 22 32 1002.1 - 0.0 - - - - - - -
28/05:00am 17.9 N 23 32 1002.1 - 0.0 - - - - - - -
28/04:30am 18.0 N 22 34 1002.2 - 0.0 - - - - - - -
28/04:00am 18.4 N 22 33 1002.5 - 0.0 - - - - - - -
28/03:46am 18.3 N 22 32 1002.7 - 0.0 - - - - - - -

Other Formats:

Comma delimited format used in spreadsheet applications
http://www.bom.gov.au/fwo/IDS60701/IDS60701.95805.axf

JavaScript Object Notation format (JSON) in row-major order
http://www.bom.gov.au/fwo/IDS60701/IDS60701.95805.json